User: anonymous   Login
Location: Unspecified
(0.0000°N, 0.0000°E)
Time: 11:20:05
(UTC+01:00)
Language:

Resurs 1-3 - Orbit

View from above orbital plane
View from above orbital plane
View from above satellite
View from above satellite

Ground track
Ground track

The orbit data is extracted from the following two-line orbital elements,

1 23342U 94074A   15028.16829375  .00000485  00000-0  73425-4 0  4149
2 23342 098.1592 046.5120 0001597 084.4209 321.1604 14.78722882 89033
Epoch (UTC): 28 January 2015 04:02:20
Eccentricity: 0.0001597
inclination: 98.1592°
perigee height: 632 km
apogee height: 634 km
right ascension of ascending node: 46.5120°
argument of perigee: 84.4209°
revolutions per day: 14.78722882
mean anomaly at epoch: 321.1604°
orbit number at epoch: 8903

The dashed part of the orbit path shows where the satellite is in the earth's shadow,  

DLR